DW4238 Weather Reports


time (UTC)temp
C
wind
direction
speed
KPH
gust
KPH
rain 1hr
cm
rain 24hr
cm
rain mn
cm
humidity
%
barometer
mb
20260902113115 26 271 0.0 0.0 0.00 0.00 0.00 86 1013.3
20260902112628 26 273 0.0 0.0 0.00 0.00 0.00 86 1013.2
20260902112106 26 274 0.0 0.0 0.00 0.00 0.00 86 1013.3
20260902111538 26 277 0.0 0.0 0.00 0.00 0.00 85 1013.4
20260902111131 26 278 0.0 0.0 0.00 0.00 0.00 85 1013.4
20260902110634 26 278 0.0 0.0 0.00 0.00 0.00 85 1013.3
20260902110040 26 278 0.0 0.0 0.00 0.00 0.00 85 1013.4
20260902105544 26 278 0.0 0.0 0.00 0.00 0.00 84 1013.4
20260902105157 26 278 0.0 0.0 0.00 0.00 0.00 84 1013.4
20260902104604 26 278 0.0 0.0 0.00 0.00 0.00 84 1013.4
20260902104108 26 278 0.0 0.0 0.00 0.00 0.00 84 1013.4
20260902103624 26 278 0.0 0.0 0.00 0.00 0.00 84 1013.4
20260902102546 26 278 0.0 0.0 0.00 0.00 0.00 84 1013.3
20260902102059 26 278 0.0 4.8 0.00 0.00 0.00 84 1013.3
20260902101543 26 279 0.0 4.8 0.00 0.00 0.00 84 1013.4
20260902101055 26 279 0.0 0.0 0.00 0.00 0.00 84 1013.4
20260902100117 26 277 0.0 4.8 0.00 0.00 0.00 83 1013.3
20260902095629 26 279 3.2 6.4 0.00 0.00 0.00 83 1013.4
20260902095113 26 279 4.8 8.0 0.00 0.00 0.00 83 1013.2
20260902094544 27 281 4.8 8.0 0.00 0.00 0.00 83 1013.1
20260902094055 27 271 3.2 9.7 0.00 0.00 0.00 83 1013.2
20260902093600 27 269 3.2 6.4 0.00 0.00 0.00 83 1013.1
20260902093151 27 263 3.2 6.4 0.00 0.00 0.00 83 1013.1
20260902092643 27 261 1.6 9.7 0.00 0.00 0.00 82 1013.1
20260902091639 27 259 3.2 6.4 0.00 0.00 0.00 82 1013.0
20260902091123 27 254 1.6 6.4 0.00 0.00 0.00 82 1013.1
20260902090635 27 246 1.6 6.4 0.00 0.00 0.00 82 1013.0
20260902085545 27 242 1.6 4.8 0.00 0.00 0.00 81 1013.1
20260902084612 27 240 3.2 6.4 0.00 0.00 0.00 81 1013.0
20260902084124 27 238 3.2 8.0 0.00 0.00 0.00 81 1012.9
20260902083102 27 232 3.2 8.0 0.00 0.00 0.00 81 1012.9
20260902082611 27 240 4.8 8.0 0.00 0.00 0.00 81 1012.9
20260902082109 27 235 3.2 8.0 0.00 0.00 0.00 81 1013.0
20260902081540 27 236 3.2 6.4 0.00 0.00 0.00 81 1013.1
20260902081044 27 236 3.2 6.4 0.00 0.00 0.00 81 1013.0
20260902080636 27 236 1.6 6.4 0.00 0.00 0.00 81 1013.0
20260902075547 27 231 3.2 6.4 0.00 0.00 0.00 80 1013.2
20260902074614 27 230 4.8 6.4 0.00 0.00 0.00 79 1013.2
20260902074104 27 229 4.8 8.0 0.00 0.00 0.00 78 1013.2
20260902073103 27 226 3.2 6.4 0.00 0.00 0.00 77 1013.4
20260902072608 27 225 0.0 0.0 0.00 0.00 0.00 77 1013.4
20260902071630 27 207 0.0 0.0 0.00 0.00 0.00 78 1013.5
20260902071135 27 204 0.0 4.8 0.00 0.00 0.00 78 1013.6
20260902070626 27 202 1.6 4.8 0.00 0.00 0.00 78 1013.5
20260902070052 27 200 1.6 4.8 0.00 0.00 0.00 78 1013.6
20260902065540 27 197 0.0 4.8 0.00 0.00 0.00 79 1013.6
20260902065050 27 196 1.6 4.8 0.00 0.00 0.00 79 1013.7
20260902064542 26 145 0.0 1.6 0.00 0.00 0.00 79 1013.6
20260902064052 26 144 0.0 0.0 0.00 0.00 0.00 79 1013.6
20260902063603 26 143 0.0 3.2 0.00 0.00 0.00 79 1013.6
20260902063057 26 142 0.0 3.2 0.00 0.00 0.00 79 1013.6
20260902062547 27 142 1.6 1.6 0.00 0.00 0.00 79 1013.5
20260902062058 27 142 0.0 0.0 0.00 0.00 0.00 78 1013.5
20260902061552 26 142 0.0 0.0 0.00 0.00 0.00 79 1013.6
20260902061123 26 142 0.0 0.0 0.00 0.00 0.00 79 1013.7
20260902060538 26 142 0.0 0.0 0.00 0.00 0.00 79 1013.7
20260902055613 26 142 0.0 0.0 0.00 0.00 0.00 79 1013.6
20260902055102 26 142 0.0 0.0 0.00 0.00 0.00 79 1013.7
20260902054603 26 142 0.0 0.0 0.00 0.00 0.00 79 1013.7
20260902054046 26 142 0.0 0.0 0.00 0.00 0.00 79 1013.7
20260902053555 26 142 0.0 0.0 0.00 0.00 0.00 79 1013.6
20260902053047 26 142 0.0 0.0 0.00 0.00 0.00 79 1013.7
20260902052604 26 142 0.0 0.0 0.00 0.00 0.00 79 1013.7
20260902052047 26 142 0.0 0.0 0.00 0.00 0.00 79 1013.6
20260902051607 27 141 0.0 0.0 0.00 0.00 0.00 79 1013.6
20260902051056 27 141 0.0 3.2 0.00 0.00 0.00 79 1013.5
20260902050546 27 141 1.6 3.2 0.00 0.00 0.00 79 1013.5
20260902050040 27 141 0.0 3.2 0.00 0.00 0.00 79 1013.6
20260902045650 27 141 0.0 0.0 0.00 0.00 0.00 78 1013.7
20260902045114 27 141 0.0 1.6 0.00 0.00 0.00 78 1013.6
20260902044539 27 141 0.0 1.6 0.00 0.00 0.00 78 1013.7
20260902044050 27 141 0.0 1.6 0.00 0.00 0.00 78 1013.7
20260902043116 27 141 0.0 4.8 0.00 0.00 0.00 78 1013.7
20260902042627 27 141 1.6 4.8 0.00 0.00 0.00 77 1013.7
20260902042131 27 141 1.6 4.8 0.00 0.00 0.00 77 1013.7
20260902041558 27 141 1.6 4.8 0.00 0.00 0.00 77 1013.7
20260902041111 27 140 0.0 4.8 0.00 0.00 0.00 76 1013.8
20260902040134 27 140 1.6 3.2 0.00 0.00 0.00 76 1013.7
20260902035624 27 140 0.0 3.2 0.00 0.00 0.00 75 1013.7
20260902035129 27 140 0.0 3.2 0.00 0.00 0.00 75 1013.8
20260902034600 27 141 0.0 0.0 0.00 0.00 0.00 75 1013.7
20260902034105 27 141 0.0 4.8 0.00 0.00 0.00 75 1013.6
20260902033611 28 142 1.6 4.8 0.00 0.00 0.00 74 1013.6
20260902033043 28 142 1.6 4.8 0.00 0.00 0.00 74 1013.5
20260902032545 28 142 1.6 4.8 0.00 0.00 0.00 74 1013.4
20260902031608 28 141 3.2 6.4 0.00 0.00 0.00 74 1013.4
20260902031119 28 140 3.2 6.4 0.00 0.00 0.00 74 1013.3
20260902030631 28 139 3.2 6.4 0.00 0.00 0.00 74 1013.2
20260902030058 28 136 3.2 8.0 0.00 0.00 0.00 73 1013.3
20260902025610 28 136 3.2 8.0 0.00 0.00 0.00 73 1013.2
20260902024631 28 146 3.2 11.3 0.00 0.00 0.00 72 1013.1
20260902024143 28 144 3.2 8.0 0.00 0.00 0.00 72 1013.1
20260902023102 28 134 1.6 4.8 0.00 0.00 0.00 71 1013.1
20260902022606 28 137 1.6 4.8 0.00 0.00 0.00 71 1013.0
20260902021635 29 136 3.2 8.0 0.00 0.00 0.00 70 1012.9
20260902021118 29 134 3.2 8.0 0.00 0.00 0.00 70 1012.6
20260902020630 29 129 3.2 6.4 0.00 0.00 0.00 70 1012.7
20260902020054 29 129 1.6 6.4 0.00 0.00 0.00 69 1012.5
20260902015605 29 128 3.2 9.7 0.00 0.00 0.00 69 1012.5
20260902014601 30 124 3.2 8.0 0.00 0.00 0.00 68 1012.4
20260902014112 30 127 1.6 11.3 0.00 0.00 0.00 68 1012.3
20260902013612 30 130 4.8 11.3 0.00 0.00 0.00 68 1012.3
20260902013046 30 113 3.2 12.9 0.00 0.00 0.00 67 1012.4
20260902012556 30 71 3.2 14.5 0.00 0.00 0.00 67 1012.3
20260902011618 30 124 4.8 12.9 0.00 0.00 0.00 66 1012.3
20260902011051 30 125 6.4 14.5 0.00 0.00 0.00 66 1012.3
20260902010112 31 71 4.8 17.7 0.00 0.00 0.00 64 1012.0
20260902005617 31 117 3.2 14.5 0.00 0.00 0.00 64 1012.0
20260902004622 32 131 3.2 12.9 0.00 0.00 0.00 62 1012.0
20260902004106 32 80 4.8 14.5 0.00 0.00 0.00 61 1011.9
20260902003129 32 115 6.4 20.9 0.00 0.00 0.00 59 1011.9
20260902002540 33 105 8.0 19.3 0.00 0.00 0.00 57 1011.7
20260902001606 34 134 3.2 9.7 0.00 0.00 0.00 50 1011.5
20260902001115 34 117 1.6 17.7 0.00 0.00 0.00 50 1011.3
20260902000116 35 120 4.8 12.9 0.00 0.00 0.00 49 1011.5
20260901235626 35 109 4.8 12.9 0.00 0.00 0.00 49 1011.4
20260901234643 35 121 8.0 17.7 0.00 0.00 0.00 48 1011.4
20260901234112 35 84 6.4 17.7 0.00 0.00 0.00 48 1011.4
20260901233614 35 94 6.4 16.1 0.00 0.00 0.00 49 1011.4
20260901233044 35 130 6.4 14.5 0.00 0.00 0.00 49 1011.6
20260901232551 35 123 4.8 14.5 0.00 0.00 0.00 49 1011.6
20260901232039 35 86 9.7 14.5 0.00 0.00 0.00 48 1011.7
20260901231626 35 144 8.0 16.1 0.00 0.00 0.00 48 1011.6
20260901231135 35 125 6.4 20.9 0.00 0.00 0.00 48 1011.6
20260901230625 35 82 9.7 19.3 0.00 0.00 0.00 48 1011.7
20260901225548 35 84 11.3 17.7 0.00 0.00 0.00 46 1011.6
20260901224610 35 118 8.0 12.9 0.00 0.00 0.00 48 1011.8
20260901224122 35 57 4.8 16.1 0.00 0.00 0.00 48 1011.7
20260901223123 35 119 1.6 9.7 0.00 0.00 0.00 48 1011.8
20260901222539 35 75 4.8 9.7 0.00 0.00 0.00 48 1011.8
20260901222039 35 125 4.8 17.7 0.00 0.00 0.00 49 1011.9
20260901221040 35 80 6.4 17.7 0.00 0.00 0.00 49 1012.0
20260901215613 35 97 11.3 19.3 0.00 0.00 0.00 49 1012.1
20260901214615 35 49 8.0 19.3 0.00 0.00 0.00 48 1012.0
20260901214106 35 75 3.2 16.1 0.00 0.00 0.00 48 1012.0
20260901213610 35 40 6.4 19.3 0.00 0.00 0.00 48 1012.1
20260901213041 35 36 11.3 19.3 0.00 0.00 0.00 49 1012.1
20260901212553 35 100 1.6 19.3 0.00 0.00 0.00 50 1012.1
20260901211616 35 91 4.8 14.5 0.00 0.00 0.00 51 1012.1
20260901211128 35 61 6.4 20.9 0.00 0.00 0.00 51 1012.1
20260901210633 35 108 9.7 20.9 0.00 0.00 0.00 51 1012.2
20260901210101 35 69 11.3 22.5 0.00 0.00 0.00 51 1012.2
20260901205615 35 80 6.4 20.9 0.00 0.00 0.00 52 1012.2
20260901205118 35 93 12.9 19.3 0.00 0.00 0.00 51 1012.3
20260901204548 35 65 12.9 19.3 0.00 0.00 0.00 50 1012.3
20260901204053 35 67 11.3 22.5 0.00 0.00 0.00 48 1012.4
20260901203123 36 38 17.7 25.7 0.00 0.00 0.00 48 1012.5
20260901202626 36 81 16.1 27.4 0.00 0.00 0.00 50 1012.6
20260901202137 35 86 12.9 27.4 0.00 0.00 0.00 51 1012.6
20260901201559 36 90 12.9 22.5 0.00 0.00 0.00 50 1012.7
20260901201126 35 355 4.8 22.5 0.00 0.00 0.00 51 1012.8
20260901200636 35 68 11.3 24.1 0.00 0.00 0.00 51 1012.9
20260901200100 35 80 9.7 20.9 0.00 0.00 0.00 53 1013.0
20260901195610 35 90 12.9 24.1 0.00 0.00 0.00 52 1013.0
20260901195158 35 84 9.7 20.9 0.00 0.00 0.00 52 1012.9
20260901194600 35 176 6.4 14.5 0.00 0.00 0.00 52 1013.0
20260901193637 35 314 3.2 14.5 0.00 0.00 0.00 53 1013.0
20260901193048 35 109 1.6 14.5 0.00 0.00 0.00 53 1013.0
20260901192552 35 69 6.4 12.9 0.00 0.00 0.00 54 1013.1
20260901191622 34 26 8.0 14.5 0.00 0.00 0.00 55 1013.3
20260901191127 34 35 4.8 16.1 0.00 0.00 0.00 56 1013.3
20260901190128 34 355 4.8 11.3 0.00 0.00 0.00 56 1013.4
20260901185543 35 55 4.8 12.9 0.00 0.00 0.00 56 1013.4
20260901185155 34 339 3.2 14.5 0.00 0.00 0.00 56 1013.5
20260901184551 34 74 3.2 14.5 0.00 0.00 0.00 57 1013.6
20260901184104 34 351 3.2 11.3 0.00 0.00 0.00 58 1013.6
20260901183106 33 101 4.8 16.1 0.00 0.00 0.00 59 1013.9
20260901182611 33 110 4.8 17.7 0.00 0.00 0.00 59 1014.1
20260901182122 33 74 6.4 20.9 0.00 0.00 0.00 60 1014.2
20260901181553 33 96 8.0 20.9 0.00 0.00 0.00 61 1014.3
20260901181058 33 95 4.8 16.1 0.00 0.00 0.00 61 1014.5
20260901180057 33 83 4.8 17.7 0.00 0.00 0.00 62 1014.7
20260901175608 33 59 9.7 17.7 0.00 0.00 0.00 61 1014.7
20260901174608 33 69 12.9 17.7 0.00 0.00 0.00 60 1014.9
20260901174119 33 77 4.8 11.3 0.00 0.00 0.00 62 1015.0
20260901173624 33 349 3.2 12.9 0.00 0.00 0.00 61 1015.0
20260901173051 32 90 1.6 11.3 0.00 0.00 0.00 62 1015.1
20260901172559 32 107 4.8 17.7 0.00 0.00 0.00 63 1015.1
20260901171628 32 72 1.6 16.1 0.00 0.00 0.00 63 1015.2
20260901171134 33 70 6.4 20.9 0.00 0.00 0.00 62 1015.3
20260901170624 33 67 9.7 20.9 0.00 0.00 0.00 64 1015.4
20260901170044 32 67 8.0 17.7 0.00 0.00 0.00 65 1015.3
20260901165556 32 125 9.7 16.1 0.00 0.00 0.00 66 1015.3
20260901165109 32 136 6.4 17.7 0.00 0.00 0.00 66 1015.4
20260901164653 32 70 11.3 17.7 0.00 0.00 0.00 66 1015.4
20260901164123 32 89 3.2 12.9 0.00 0.00 0.00 69 1015.4
20260901163634 31 27 4.8 9.7 0.00 0.00 0.00 69 1015.4
20260901163052 31 76 1.6 14.5 0.00 0.00 0.00 69 1015.5
20260901162609 31 78 6.4 14.5 0.00 0.00 0.00 68 1015.4
20260901162109 31 59 6.4 9.7 0.00 0.00 0.00 69 1015.4
20260901161541 31 299 3.2 14.5 0.00 0.00 0.00 70 1015.4
20260901161052 31 67 3.2 14.5 0.00 0.00 0.00 69 1015.4
20260901160657 31 294 6.4 16.1 0.00 0.00 0.00 69 1015.5
20260901160104 31 315 9.7 16.1 0.00 0.00 0.00 68 1015.5
20260901155617 31 276 3.2 9.7 0.00 0.00 0.00 71 1015.5
20260901154617 31 27 3.2 9.7 0.00 0.00 0.00 73 1015.6
20260901154101 31 321 6.4 14.5 0.00 0.00 0.00 73 1015.7
20260901153129 30 346 1.6 9.7 0.00 0.00 0.00 75 1015.8
20260901152638 30 299 4.8 12.9 0.00 0.00 0.00 75 1015.8
20260901152128 30 288 4.8 12.9 0.00 0.00 0.00 75 1015.8
20260901151149 30 341 3.2 14.5 0.00 0.00 0.00 77 1015.9
20260901150637 29 319 4.8 14.5 0.00 0.00 0.00 76 1015.8
20260901150041 29 5 4.8 9.7 0.00 0.00 0.00 77 1015.7
20260901145553 29 41 4.8 8.0 0.00 0.00 0.00 79 1015.7
20260901144615 28 29 4.8 8.0 0.00 0.00 0.00 82 1015.7
20260901144125 28 306 3.2 11.3 0.00 0.00 0.00 83 1015.7
20260901143608 28 350 6.4 12.9 0.00 0.00 0.00 83 1015.7
20260901143039 28 342 4.8 12.9 0.00 0.00 0.00 84 1015.7
20260901142544 28 290 4.8 9.7 0.00 0.00 0.00 84 1015.8
20260901141603 28 360 6.4 12.9 0.00 0.00 0.00 86 1015.8
20260901141049 27 317 8.0 12.9 0.00 0.00 0.00 85 1015.9
20260901140110 27 321 4.8 9.7 0.00 0.00 0.00 86 1015.9
20260901135621 27 307 6.4 9.7 0.00 0.00 0.00 86 1016.0
20260901135127 27 346 1.6 8.0 0.00 0.00 0.00 87 1015.9
20260901134558 27 323 4.8 8.0 0.00 0.00 0.00 87 1016.0
20260901134110 27 333 0.0 6.4 0.00 0.00 0.00 87 1016.0
20260901133132 26 338 0.0 6.4 0.00 0.00 0.00 88 1016.1
20260901132644 26 337 4.8 6.4 0.00 0.00 0.00 88 1016.0
20260901132125 26 348 1.6 4.8 0.00 0.00 0.00 89 1015.9
20260901131552 26 348 3.2 6.4 0.00 0.00 0.00 89 1015.8
20260901131058 26 347 3.2 6.4 0.00 0.00 0.00 89 1015.8
20260901130609 25 345 0.0 3.2 0.00 0.00 0.00 89 1015.8
20260901130040 25 284 1.6 3.2 0.00 0.00 0.00 90 1015.6
20260901125645 25 279 0.0 4.8 0.00 0.00 0.00 90 1015.6
20260901125136 25 279 1.6 4.8 0.00 0.00 0.00 90 1015.5
20260901124603 25 275 0.0 1.6 0.00 0.00 0.00 90 1015.4
20260901124108 25 274 0.0 0.0 0.00 0.00 0.00 90 1015.4
20260901123129 25 272 0.0 0.0 0.00 0.00 0.00 89 1015.4
20260901122541 25 271 0.0 0.0 0.00 0.00 0.00 89 1015.2
20260901121546 25 271 0.0 0.0 0.00 0.00 0.00 89 1015.1
20260901121057 25 271 0.0 0.0 0.00 0.00 0.00 89 1015.0
20260901120119 25 269 0.0 0.0 0.00 0.00 0.00 89 1015.0
20260901115632 25 207 0.0 0.0 0.00 0.00 0.00 88 1014.9
20260901115136 25 207 0.0 0.0 0.00 0.00 0.00 88 1014.9
20260901114603 25 207 0.0 0.0 0.00 0.00 0.00 88 1014.9
20260901114116 25 162 0.0 0.0 0.00 0.00 0.00 88 1014.9